GOES 16 [S]

Last updated on Dec. 22, 2017, 12:18 a.m. UTC

1 41866U 16071A   17354.95967893 -.00000240  00000-0  00000+0 0  9992
2 41866   0.0071 106.0716 0001860 305.6418 308.3109  1.00273841  4024
UTC
Height (km)
Latitude
Longitude
Inclination
Orbital Period
UTC large
Height (km)
Speed (km/s)
/
Latitude / Longitude
Inclination (degrees)
Orbital Period (minutes)
Azimuth
Elevation
Range (km)
Doppler Factor
iOS Compass Heading
iOS Angle